Prerov, Czech Republic

9:56 PM CET on March 24, 2017 (GMT +0100)
Prerov

Weather History for LKPO - September, 2013

Change the Weather History Date:

Sunday, September 29, 2013

  Actual Average Record
Temperature  
Mean Temperature 48 °F -  
Max Temperature 59 °F - - ()
Min Temperature 37 °F - - ()
Degree Days  
Heating Degree Days 17    
Moisture  
Dew Point 39 °F    
Average Humidity 71    
Maximum Humidity 93    
Minimum Humidity 51    
Precipitation  
Precipitation 0.00 in - - ()
Sea Level Pressure  
Sea Level Pressure 30.01 in    
Wind  
Wind Speed 7 mph ()    
Max Wind Speed 16 mph    
Max Gust Speed -    
Visibility 5.8 miles    
Events      
T = Trace of Precipitation, MM = Missing Value Source: Averaged Metar Reports

Daily Weather History Graph

Daily Weather History Graph

Search for Another Location

Airport or City:

Trip Planner

Search our weather history database for the weather conditions in past years. The results will help you decide how hot, cold, wet, or windy it might be!

Date:

Astronomy

Sep. 29, 2013 Rise Set
Actual Time 6:47 AM CEST 6:33 PM CEST
Civil Twilight 6:15 AM CEST 7:05 PM CEST
Nautical Twilight 5:38 AM CEST 7:42 PM CEST
Astronomical Twilight 4:59 AM CEST 8:20 PM CEST
Moon 12:46 AM CEST (9/29) 3:41 PM CEST (9/29)
Length of Visible Light 12h 49m
Length of Day
11h 46m
Waning Crescent, 29% of the Moon is Illuminated
Sep 29
Waning Crescent
Oct 5
New
Oct 12
First Quarter
Oct 19
Full
Oct 27
Last Quarter

Hourly Weather History & Observations

Time (CEST) Temp. Windchill Dew Point Humidity Pressure Visibility Wind Dir Wind Speed Gust Speed Precip Events Conditions
12:00 AM 48.2 °F - 41.0 °F 76% 30.01 in - ENE 9.2 mph - N/A   Clear
1:00 AM 46.4 °F 42.4 °F 39.2 °F 76% 30.01 in - ENE 8.1 mph - N/A   Clear
2:00 AM 42.8 °F - 37.4 °F 81% 30.01 in - Calm Calm - N/A   Clear
3:00 AM 41.0 °F - 35.6 °F 81% 30.01 in - NNE 1.2 mph - N/A   Clear
4:00 AM 41.0 °F 38.0 °F 37.4 °F 87% 30.01 in - NE 4.6 mph - N/A   Clear
5:00 AM 39.2 °F - 35.6 °F 87% 30.04 in - Calm Calm - N/A   Clear
6:00 AM 37.4 °F 34.9 °F 35.6 °F 93% 30.04 in - NE 3.5 mph - N/A   Clear
7:00 AM 37.4 °F - 33.8 °F 87% 30.04 in - Variable 2.3 mph - N/A   Clear
8:00 AM 39.2 °F 37.0 °F 35.6 °F 87% 30.04 in 5.0 mi ENE 3.5 mph - N/A   Unknown
9:00 AM 46.4 °F 41.1 °F 42.8 °F 87% 30.04 in 5.0 mi East 11.5 mph - N/A   Unknown
10:00 AM 50.0 °F - 42.8 °F 76% 30.04 in 5.6 mi East 10.4 mph - N/A   Unknown
11:00 AM 53.6 °F - 41.0 °F 62% 30.04 in - ENE 15.0 mph - N/A   Clear
12:00 PM 55.4 °F - 41.0 °F 58% 30.01 in 6.2 mi ENE 15.0 mph - N/A   Partly Cloudy
1:00 PM 57.2 °F - 41.0 °F 55% 30.01 in 6.2 mi ENE 13.8 mph - N/A   Partly Cloudy
2:00 PM 57.2 °F - 39.2 °F 51% 30.01 in 6.2 mi ENE 13.8 mph - N/A   Partly Cloudy
3:00 PM 57.2 °F - 41.0 °F 55% 30.01 in 6.2 mi East 13.8 mph - N/A   Partly Cloudy
4:00 PM 59.0 °F - 41.0 °F 51% 29.98 in 6.2 mi East 12.7 mph - N/A   Partly Cloudy
5:00 PM 55.4 °F - 41.0 °F 58% 29.98 in - ENE 13.8 mph - N/A   Clear
6:00 PM 53.6 °F - 39.2 °F 58% 29.98 in - ENE 13.8 mph - N/A   Clear
7:00 PM 50.0 °F - 39.2 °F 66% 29.98 in - ENE 11.5 mph - N/A   Clear
8:00 PM 50.0 °F - 39.2 °F 66% 29.98 in - East 11.5 mph - N/A   Clear
9:00 PM 50.0 °F - 39.2 °F 66% 29.98 in - East 13.8 mph - N/A   Clear
10:00 PM 48.2 °F - 39.2 °F 71% 29.98 in - ENE 16.1 mph - N/A   Clear
11:00 PM 46.4 °F 40.1 °F 39.2 °F 76% 29.98 in - East 15.0 mph - N/A   Clear